Flag for Singapore Weather past 2 weeks in Singapore, Singapore

Now
88 °F

Partly sunny.


Feels Like: 100 °F
Forecast: 76 / 88 °F
Wind: 9 mph from Southwest

Location: Singapore / Paya Lebar

Current Time: Sep 3, 2014 at 11:27:36 AM

Latest Report: Sep 3, 2014 at 11:00 AM


Visibility: 5 mi

Pressure: 29.92 "Hg

Humidity: 70%

Dew point: 77 °F

Location of SingaporeLocation

Historic Weather in Singapore — Graph

°F

Singapore temperature yesterday

Maximum temperature yesterday: 90 °F (at 1:00 PM)
Minimum temperature yesterday: 81 °F (at 5:00 AM)
Average temperature yesterday: 86 °F

Past Weeks' High & Low Weather Summary

 TemperatureHumidityPressure
High93 °F (Sep 1, 5:00 PM)94% (Aug 25, 2:00 PM)29.92 "Hg (Aug 25, 2:00 PM)
Low73 °F (Aug 27, 7:00 AM)38% (Sep 1, 4:00 PM)29.74 "Hg (Aug 22, 4:00 PM)
Average83 °F77%29.81 "Hg
* Reported Aug 19 10:00 AM — Sep 3 10:00 AM, Singapore, Weather by CustomWeather, © 2014

Note: Actual official high and low records may vary slightly from our data, if they occured in-between our weather recording intervals... More about our weather records

Advertising

Singapore weather history for previous 24 hours

 ConditionsComfort  
Time TempWeatherWind HumidityBarometerVisibility
10:00 AM
Sep 3
86 °FPartly sunny.7 mph75%29.92 "Hg6 mi
9:00 AM84 °FScattered clouds.2 mph84%29.92 "Hg4 mi
8:00 AM82 °FPartly sunny.2 mph84%29.89 "Hg2 mi
7:00 AM81 °FPartly sunny.2 mph89%29.86 "Hg2 mi
6:00 AM82 °FPartly cloudy.3 mph84%29.86 "HgN/A
5:00 AM82 °FPassing clouds.1 mph84%29.83 "HgN/A
11:00 PM
Sep 2
84 °FPassing clouds.3 mph79%29.86 "HgN/A
10:00 PM84 °FPassing clouds.5 mph79%29.83 "HgN/A
9:00 PM86 °FPassing clouds.3 mph75%29.83 "HgN/A
8:00 PM86 °FPassing clouds.8 mph70%29.83 "HgN/A
7:00 PM88 °FPartly sunny.7 mph66%29.77 "HgN/A
6:00 PM88 °FPartly sunny.5 mph66%29.77 "HgN/A
5:00 PM90 °FPartly sunny.7 mph63%29.77 "Hg6 mi
4:00 PM88 °FPartly sunny.10 mph66%29.77 "Hg6 mi
3:00 PM90 °FBroken clouds.9 mph55%29.80 "Hg6 mi
2:00 PM90 °FBroken clouds.8 mph59%29.83 "Hg6 mi
1:00 PM90 °FThundershowers. Partly sunny.6 mph63%29.83 "Hg6 mi
12:00 PM88 °FPartly sunny.7 mph66%29.86 "Hg6 mi
11:00 AM88 °FPartly sunny.7 mph70%29.89 "Hg6 mi
Weather by CustomWeather, © 2014

See weather overviewHow to use our weather pages